Location: Logan
(41.7360°N, 111.8340°W)
Time: 15:02:12
(UTC-06:00)

Daily predictions for brighter satellites

Satellite Brightness Start Highest point End
(mag) Time Altitude Azimuth Time Altitude Azimuth Time Altitude Azimuth
Cosmos 2034 Rocket 4.2 21:16:07 10° N 21:22:27 64° E 21:28:42 10° SSE
SeaSat 1 3.7 21:19:38 10° ESE 21:23:47 28° NE 21:27:57 10° N
Cosmos 1743 4.4 21:23:43 10° NNW 21:27:14 35° W 21:30:44 10° SSW
Cosmos 1461 3.5 21:32:36 10° NW 21:36:47 53° WSW 21:40:44 10° SSE
Meteor 1-15 Rocket 4.5 21:32:41 10° NNW 21:38:17 75° W 21:43:56 10° S
ISS -3.4 21:35:01 10° SW 21:38:17 78° SE 21:41:33 10° ENE
Aureole 2 Rocket 4.1 21:35:50 10° SW 21:39:27 41° WNW 21:42:47 10° N
H-2A R/B 4.3 21:39:39 10° ENE 21:39:53 10° ENE 21:40:08 10° NE
Atlas Centaur 2 3.6 21:35:18 10° SW 21:41:34 34° S 21:48:45 10° ESE
ALOS 3.7 21:42:50 10° SSW 21:47:09 37° W 21:51:30 10° NNW
Cosmos 1603 3.8 21:42:18 10° SSW 21:47:55 84° WNW 21:53:34 10° NNE
PSLV R/B 3.3 21:47:39 10° WSW 21:51:10 75° S 21:54:43 10° E
ATLAS 3B R/B 3.2 21:46:01 10° S 21:53:13 45° ESE 22:00:19 10° NE
GEOS 3 Rocket 4.1 21:48:36 10° SSE 21:53:45 56° WSW 21:58:54 10° NW
Cosmos 1939 Rocket 2.9 21:51:11 10° SSE 21:55:20 90° SW 21:59:31 10° NNW
USA 186 4.3 21:55:13 10° SW 21:56:44 14° W 21:58:13 10° WNW
Lacrosse 5 rocket 4.3 21:54:38 10° WNW 21:56:58 15° NNW 21:59:21 10° NNE
MetOp-A 4.4 21:54:58 12° SE 21:59:50 54° ENE 22:05:03 10° N
ERS-1 Rocket 3.8 21:59:10 10° S 22:04:00 49° W 22:08:54 10° NNW
CZ-4 SHROUD 3.1 22:01:33 14° SSE 22:04:12 82° ENE 22:07:23 10° N
Cosmos 1943 Rocket 3.6 22:00:28 10° N 22:04:58 24° NE 22:09:02 12° ESE
SPOT 5 2.6 22:02:15 12° SSE 22:06:18 78° ENE 22:10:38 10° N
Cosmos 1943 3.2 22:03:39 10° S 22:09:13 61° ESE 22:14:51 10° NNE
Cosmos 1346 Rocket 3.4 22:09:56 17° SSE 22:12:25 37° E 22:16:04 10° NNE
USA 234 3.7 22:06:31 11° ESE 22:12:40 55° NNE 22:19:03 10° NW
Terra 3.7 22:10:21 11° E 22:13:02 17° ENE 22:16:07 10° NNE
PSLV R/B 3.3 22:13:27 16° S 22:15:49 71° WSW 22:18:56 10° NNW
Envisat 3.2 22:11:40 10° S 22:16:43 72° WSW 22:21:49 10° NNW
SL-27 R/B 4.4 22:19:49 13° E 22:19:49 13° E 22:21:01 10° ENE
Cosmos 1825 Rocket 3.6 22:15:30 11° S 22:19:43 67° E 22:24:08 10° NNE
Cosmos 407 Rocket 3.7 22:15:07 10° S 22:20:11 49° ESE 22:25:13 10° NNE
COSMOS 2455 3.3 22:15:56 10° SW 22:21:54 66° WNW 22:27:55 10° NNE
USA 238 DEB 4.3 22:30:15 13° S 22:35:52 35° ESE 22:42:09 10° NE
USA 238 4.3 22:30:31 13° S 22:35:59 35° ESE 22:42:14 10° NE
H-2A R/B 4.2 22:35:19 10° SSW 22:38:41 22° W 22:42:08 10° NW
ARGOS 3.2 22:37:09 23° SSE 22:40:35 72° ENE 22:46:01 10° N
Cosmos 1954 Rocket 4.4 22:37:45 22° SSE 22:40:43 44° ESE 22:45:44 10° NNE
Cosmos 1900 4.3 22:35:53 10° SSW 22:41:00 73° ESE 22:46:09 10° NE
Cosmos 1766 3.5 22:40:53 10° N 22:44:51 57° E 22:46:19 35° SE
Cosmos 2084 4.3 22:46:33 10° NNW 22:50:26 39° NE 22:52:16 25° E
Lacrosse 4 Rocket 1.6 22:47:17 10° SW 22:51:19 69° WNW 22:55:25 10° NNE
Cosmos 2369 Rocket 2.5 22:46:45 10° NNW 22:52:19 60° WSW 22:55:44 23° S
USA 245 4.4 22:51:08 20° S 22:55:11 68° WSW 23:00:09 10° NNW
SeaSat 1 3.3 22:58:17 22° S 23:01:07 42° WSW 23:05:49 10° NW
NOAA 11 4.2 23:02:15 28° S 23:05:14 77° WSW 23:10:41 10° NNW
YAOGAN 6 3.9 23:03:34 22° SSW 23:05:23 36° W 23:08:52 10° NNW
SL-08 RB Rocket 3.7 23:03:34 33° S 23:05:34 77° WSW 23:10:07 10° NNW
Cosmos 1953 Rocket 4.4 23:03:42 15° SSW 23:07:12 49° WNW 23:11:33 10° N
Geosat 4.0 23:03:57 10° NNE 23:08:57 63° ESE 23:11:23 30° S
Cosmos 1470 4.5 23:08:58 10° NNE 23:11:51 19° ENE 23:11:59 19° ENE
Cosmos-2242 3.0 23:09:30 10° N 23:13:56 79° E 23:15:08 48° SSE
Cosmos 1805 3.5 23:10:32 10° N 23:14:25 51° E 23:14:51 48° ESE
ISS -0.6 23:12:23 10° WNW 23:15:01 22° NNW 23:17:39 10° NE
CZ-4C R/B 3.7 23:17:02 40° SSW 23:18:21 61° W 23:22:21 10° NNW
H-2A R/B 1.9 23:16:38 41° SSE 23:18:22 78° ENE 23:23:28 10° N
Cosmos 1850 Rocket 4.3 23:17:56 41° SE 23:19:04 48° ESE 23:24:05 10° NNE
Cosmos 1544 4.3 23:17:10 10° NNE 23:20:28 30° ENE 23:20:28 30° ENE
Cosmos 1570 Rocket 4.2 23:15:28 10° NNW 23:20:48 61° ENE 23:22:33 40° SE
Cosmos 1023 Rocket 4.4 23:20:57 38° S 23:22:54 69° ESE 23:28:09 10° NNE
SAR-Lupe-2 3.4 23:23:19 74° S 23:23:36 85° WSW 23:27:13 10° NNW
Cosmos 2279 Rocket 4.3 23:20:53 10° NNW 23:27:03 63° W 23:30:28 27° SSW
SL-23 DEB 4.2 23:22:16 10° WSW 23:28:08 75° NNW 23:31:44 10° NE
PSLV R/B 3.8 23:25:13 10° W 23:28:07 53° WSW 23:28:07 53° WSW
CZ-4C R/B 3.4 23:30:35 23° E 23:30:35 23° E 23:34:11 10° ENE
Cosmos 1140 Rocket 3.4 23:27:53 39° S 23:29:54 79° ESE 23:35:10 10° NNE
COSMOS 2406 3.1 23:27:47 35° S 23:30:15 73° ESE 23:35:59 10° NNE
Atlas Centaur 2 3.6 23:23:43 10° WSW 23:30:33 34° S 23:31:50 32° S
Cosmos 1607 3.9 23:29:44 33° S 23:32:29 62° ESE 23:38:37 10° NE
Cosmos 1932 4.5 23:27:37 10° SW 23:33:48 80° NW 23:40:05 10° NNE
Landsat 7 4.3 23:32:57 37° SSW 23:34:31 54° W 23:39:12 10° NNW
Cosmos 1953 2.3 23:31:02 10° NNW 23:35:00 70° W 23:35:29 61° SW
Okean 3 Rocket 4.2 23:41:45 41° E 23:41:45 41° E 23:45:45 10° NNE
CARTOSAT-1 3.9 23:42:24 48° SW 23:43:11 56° W 23:47:28 10° NNW
ATLAS 3B R/B 3.9 23:36:39 10° WSW 23:44:00 47° NW 23:51:12 10° NNE
Spot 4 3.8 23:43:13 55° S 23:44:15 78° WSW 23:49:04 10° NNW
Cosmos 1707 3.9 23:48:09 32° ENE 23:48:09 32° ENE 23:51:00 10° NNE
Cosmos 1943 Rocket 2.6 23:43:38 10° NNW 23:49:01 52° WSW 23:50:34 40° SSW
Terra 2.2 23:49:14 44° SW 23:50:20 54° W 23:55:00 10° NNW
DMSP B5D2-2 4.3 23:46:10 10° N 23:51:27 70° WNW 23:53:33 36° SW
NOSS 3-2 (A) 3.7 23:52:41 44° SE 23:53:12 45° ESE 23:59:23 10° NE
SL-27 R/B 4.1 23:53:31 26° W 23:54:14 28° WNW 23:57:12 10° N
Cosmos 614 Rocket 3.8 23:53:13 57° S 23:54:17 82° ESE 23:59:31 10° NNE
COSMOS 2487 3.4 23:57:19 44° NE 23:57:19 44° NE 23:59:55 10° NNE
